Davos, Switzerland 16 day weather forecast

Slopes altitude range 810 m - 2845m

Number of lifts: 58 Pistes: 307km

In some cases the lift and piste totals shown are for the ski domain (e.g. Three Valleys) rather than individual resort (e.g. Courchevel)

Overview

The 16 day weather forecast is fully updated 4 times every day.

    • Mon 22 APR 2019
    • Mon 22
    • 2C 10C
    • Tue 23 APR 2019
    • Tue 23
    • 3C 10C
    • Wed 24 APR 2019
    • Wed 24
    • 4C 11C
    • Thu 25 APR 2019
    • Thu 25
    • 3C 11C
    • Fri 26 APR 2019
    • Fri 26
    • -2C 5C
    • Sat 27 APR 2019
    • Sat 27
    • -2C 2C
    • Sun 28 APR 2019
    • Sun 28
    • 2C 8C
    • Mon 29 APR 2019
    • Mon 29
    • 4C 11C
    • Tue 30 APR 2019
    • Tue 30
    • -3C 0C
    • Wed 01 MAY 2019
    • Wed 01
    • -3C 2C
    • Thu 02 MAY 2019
    • Thu 02
    • -4C 3C
    • Fri 03 MAY 2019
    • Fri 03
    • -2C 9C
    • Sat 04 MAY 2019
    • Sat 04
    • 2C 12C
    • Sun 05 MAY 2019
    • Sun 05
    • 5C 12C
    • Mon 06 MAY 2019
    • Mon 06
    • 1C 4C
    • Tue 07 MAY 2019
    • Tue 07
    • -4C 0C

Date:

Time Type 0°C level Temp Chill Snow Cloud Speed Gust Dir Press
3:00 2398m 0°C 0_9 0cm 100% 9mph 12mph 1016mB
6:00 2796m -1°C -1_9 0cm 93% 9mph 13mph 1014mB
9:00 3113m 2°C 2_8 0cm 67% 8mph 11mph 1011mB
12:00 3086m 10°C 10_9 0cm 67% 9mph 11mph 1008mB
15:00 3050m 10°C 10_8 0cm 97% 8mph 11mph 1006mB
18:00 2926m 10°C 10_8 0cm 98% 8mph 10mph 1005mB
21:00 3049m 2°C 2_9 0cm 73% 9mph 12mph 1006mB
0:00 2805m 1°C 1_10 0cm 86% 10mph 14mph 1005mB
3:00 2435m 1°C 1_9 0cm 100% 9mph 13mph 1003mB
6:00 2721m 1°C 1_9 0cm 98% 9mph 12mph 1002mB
9:00 2592m 3°C 3_7 0cm 95% 7mph 9mph 1001mB
12:00 2731m 10°C 10_7 0cm 92% 7mph 8mph 1000mB
15:00 2721m 10°C 10_7 0cm 96% 7mph 9mph 1000mB
18:00 2672m 10°C 10_7 0cm 98% 7mph 9mph 1002mB
21:00 2665m 3°C 3_9 0cm 100% 9mph 12mph 1004mB
0:00 2670m 2°C 2_10 0cm 99% 10mph 13mph 1005mB
3:00 2536m 1°C 1_10 0cm 40% 10mph 14mph 1007mB
6:00 2664m 1°C 1_11 0cm 36% 11mph 15mph 1008mB
9:00 2667m 4°C 4_12 0cm 93% 12mph 18mph 1008mB
12:00 2799m 11°C 11_13 0cm 94% 13mph 23mph 1007mB
15:00 3066m 11°C 11_13 0cm 96% 13mph 19mph 1008mB
18:00 2791m 11°C 11_7 0cm 89% 7mph 9mph 1011mB
21:00 2813m 4°C 4_10 0cm 90% 10mph 15mph 1016mB
0:00 2612m 2°C 2_11 0cm 69% 11mph 16mph 1016mB
3:00 2772m 1°C 1_13 0cm 67% 13mph 19mph 1016mB
6:00 2544m 1°C 1_14 0cm 44% 14mph 20mph 1016mB
9:00 2591m 3°C 3_13 0cm 73% 13mph 19mph 1015mB
12:00 2781m 11°C 11_12 0cm 74% 12mph 22mph 1014mB
15:00 2839m 11°C 11_11 0cm 94% 11mph 21mph 1013mB
18:00 2772m 11°C 11_8 0cm 97% 8mph 12mph 1014mB
21:00 2756m 4°C 4_10 0cm 100% 10mph 15mph 1015mB
0:00 2673m 2°C 2_10 0cm 67% 10mph 15mph 1015mB
3:00 2660m 2°C 2_9 0cm 56% 9mph 13mph 1015mB
6:00 2421m 1°C 1_4 0cm 30% 4mph 6mph 1016mB
9:00 1986m 1°C 1_8 1cm 63% 8mph 10mph 1018mB
12:00 1624m 5°C 5_10 4cm 82% 10mph 14mph 1019mB
15:00 1689m -1°C -1_5 3cm 100% 5mph 6mph 1020mB
18:00 1600m -1°C -1_3 2cm 100% 3mph 4mph 1022mB
21:00 1520m -3°C -3_4 1cm 100% 4mph 5mph 1024mB
0:00 1535m -3°C -3_5 1cm 100% 5mph 7mph 1026mB
3:00 1564m -2°C -2_5 2cm 100% 5mph 9mph 1027mB
6:00 1662m -2°C -2_5 2cm 97% 5mph 7mph 1028mB
9:00 1806m -2°C -2_3 1cm 86% 3mph 3mph 1026mB
12:00 2025m 2°C 2_4 0cm 73% 4mph 4mph 1025mB
15:00 2156m 3°C 3_4 0cm 36% 4mph 5mph 1024mB
18:00 2162m 3°C 3_2 0cm 57% 2mph 2mph 1026mB
21:00 1615m -2°C -2_3 0cm 50% 3mph 4mph 1028mB
0:00 1597m -2°C -2_4 0cm 63% 4mph 5mph 1028mB
3:00 2140m -2°C -2_4 0cm 93% 4mph 5mph 1027mB
6:00 2535m -2°C -2_4 0cm 96% 4mph 4mph 1026mB
9:00 2529m 2°C 2_4 0cm 94% 4mph 4mph 1024mB
12:00 2617m 8°C 8_5 0cm 84% 5mph 5mph 1022mB
15:00 2786m 8°C 8_5 0cm 48% 5mph 5mph 1021mB
18:00 2821m 8°C 8_3 0cm 53% 3mph 4mph 1021mB
21:00 2627m 2°C 2_2 0cm 76% 2mph 3mph 1023mB
0:00 2573m 1°C 1_4 0cm 76% 4mph 5mph 1021mB
3:00 2691m 1°C 1_5 0cm 98% 5mph 6mph 1019mB
6:00 2702m 1°C 1_5 0cm 99% 5mph 6mph 1017mB
9:00 2720m 4°C 4_5 0cm 100% 5mph 6mph 1014mB
12:00 2902m 11°C 11_7 0cm 100% 7mph 15mph 1010mB
15:00 2862m 11°C 11_6 0cm 97% 6mph 8mph 1008mB
18:00 2685m 11°C 11_5 0cm 96% 5mph 7mph 1008mB
21:00 2598m 3°C 3_3 0cm 93% 3mph 4mph 1009mB
0:00 2429m 2°C 2_5 0cm 95% 5mph 7mph 1008mB
3:00 2001m 1°C 1_8 6cm 100% 8mph 12mph 1007mB
6:00 1572m -2°C -2_9 5cm 100% 9mph 13mph 1008mB
9:00 1658m -3°C -3_8 2cm 97% 8mph 11mph 1008mB
12:00 1847m 0°C 0_7 1cm 89% 7mph 9mph 1008mB
15:00 1827m 1°C 1_8 1cm 62% 8mph 9mph 1008mB
18:00 1638m 1°C 1_6 1cm 81% 6mph 8mph 1010mB
21:00 1392m -3°C -3_4 1cm 90% 4mph 5mph 1014mB
0:00 1270m -4°C -4_2 1cm 84% 2mph 3mph 1015mB
3:00 1072m -5°C -5_1 0cm 52% 1mph 2mph 1016mB
6:00 1368m -6°C -6_1 0cm 51% 1mph 1mph 1015mB
9:00 1756m -3°C -3_5 0cm 40% 5mph 5mph 1013mB
12:00 1961m 2°C 2_7 1cm 51% 7mph 6mph 1012mB
15:00 1991m 2°C 2_8 1cm 64% 8mph 8mph 1011mB
18:00 1747m 2°C 2_5 2cm 56% 5mph 6mph 1012mB
21:00 1267m -4°C -4_1 0cm 15% 1mph 2mph 1015mB
0:00 1216m -5°C -5_4 0cm 25% 4mph 5mph 1014mB
Afternoon 0.192708mm 0.3125 1994m 3°C 3_8 2cm 86% 8mph 10mph 1009mB
Morning 0.114583mm 0.4375 1555m -2°C -2_7 0cm 26% 7mph 8mph 1013mB
Afternoon 0mm 0 2591m 9°C 9_8 0cm 48% 8mph 10mph 1008mB
Morning 0.00520833mm 0.0625 2407m 2°C 2_11 0cm 76% 11mph 21mph 1009mB
Afternoon 0mm 0 2866m 12°C 12_11 0cm 93% 11mph 15mph 1003mB
Morning 0.0885417mm 0 3094m 5°C 5_11 0cm 87% 11mph 21mph 1003mB
Afternoon 0.161458mm 1.625 3037m 12°C 12_9 0cm 69% 9mph 13mph 999mB
Morning 2.36458mm 3.75 2203m 2°C 2_6 0cm 100% 6mph 10mph 999mB
Afternoon 0.765625mm 0.0625 2251m 4°C 4_8 6cm 100% 8mph 11mph 1002mB
Morning 0.09375mm 0.625 1519m -2°C -2_7 5cm 95% 7mph 12mph 1011mB
Afternoon 0.1875mm 0.125 1765m 0°C 0_9 2cm 100% 9mph 11mph 1015mB
Morning 0.0416667mm 0.125 803m -7°C -7_0 1cm 60% 0mph 1mph 1022mB

16 day outlook at a glance

Forecast issued: 22/04/2019 08:19:21

Chat

Your comments and questions. In a resort? Let us know what it's like!


Characters left 250

For terms and conditions see Readers Comments on the Cookie and privacy policy page.